Location: Arcones
(41.1182°N, 3.7238°W)
Time: 23:46:47
(UTC+00:00)

Cosmos 2263 Rocket - Pass Details

Date: 17 March 2026
Orbit: 823 x 847 km, 71.0° (Epoch: 13 April)

Event Time Altitude Azimuth Distance (km) Brightness Sun altitude
Rises 21:30:26 0° 346° (NNW) 3,397 5.9 -34.2°
Reaches altitude 10° 21:33:27 10° 2° (N) 2,454 4.9 -34.6°
Enters shadow 21:34:53 15° 14° (NNE) 2,092 4.4 -34.9°
